FREGAT DEB, 45829

Orbit data source: Space-Track

FREGAT DEB, 45829 is space debris in LEO originally from a launch on Mon, 18 Jul 2011 UTC launched from the Tyuratam Missile And Space Complex (TTMTR). Debris objects in space refer to the collection of defunct objects orbiting the Earth. Examples of debris include non-operational satellites, rocket bodies, and fragments generated from explosions, collisions, or faulty payload assembly.

Loading next visibility...
Identifier
45829, 2011-037BP
Orbit
LEO
Last TLE update
1 day ago
Origin
Manufacturer
Lavochkin
Mission
Spacecraft
Bus & Motor
Unknown
Mass
Unknown
Launch date (UTC)
2011-07-18 (14 years ago)
Launch vehicle
Unknown
Launch site
Tyuratam Missile And Space Complex (TTMTR)
Object type
Payload
Rocket body
Debris
Shape & HBR
Unknown
Radar Cross Section
Small (<0.1 m²)

Expand to show TLE details & history

TLE from 1 day ago
0 FREGAT DEB
1 45829U 11037BP  25189.31040339  .00026657  00000-0  19946-2 0  9995
2 45829  51.4116 238.5450 1389722   3.2297 357.6494 12.55012961219204
Epoch: 2025-07-08T07:26Z
TLE epoch observation values (Epoch: 2025-07-08T07:26:58.852Z)
Latitude
-0.00004°
Longitude
-159.70747°
Altitude
358.483 km
Speed
8.211 km/s
True Right ascension
15h 54m 10s
True Declination
0° 00' 00"
Sunlit
Object was in full shadow at epoch
Visualization orbit readout
Latitude
-32.73671°
Longitude
47.81851°
Altitude
2,247.087 km
Speed
6.445 km/s
Apparent Right ascension
06h 33m 25s
Apparent Declination
-36° 34' 55"
Sunlit
Object is in daylight
Visualization observer readout
Local Sidereal Time
19:46:56
Azimuth
82.826° E
Elevation
-75.214°
Doppler factor
1
Orbital elements
Apogee altitude
2,531.158 km
Perigee altitude
357.014 km
Semi-major axis
7,822.223 km
Eccentricity
0.13897
Inclination
51.4116°
RAAN
238.545°
Arg. of periapsis
3.2297°
True anomaly
Unknown
Mean anomaly
357.6494°
Eccentric anomaly
Unknown
Mean motion
3.13724 °/min
Orbital period
114.75 mins
BSTAR
0.0019946
Loading maneuver chart data...
Loading SW <> Apogee altitude chart data...
Loading historical data...
Loading historical data...
Loading historical data...
Loading historical data...
Loading historical data...
Loading historical data...
Loading historical data...

FREGAT DEB Visibility forecast

Observer location: undefined°, undefined°

Span
Click to sort rows by Start time (UTC) header in descending order
Start Az.
Max El. time (UTC)
Max El. Az.
Max El.
End time (UTC)
End Az.
11 mins2025-07-09 08:34:24.766Z297.649° NW2025-07-09 08:38:24.766Z354.101° N28.686°2025-07-09 08:45:24.766Z56.475° ENE
15 mins2025-07-09 10:35:24.766Z317.736° NNW2025-07-09 10:40:24.766Z19.439° NNE35.11°2025-07-09 10:50:24.766Z88.749° E
21 mins2025-07-09 12:34:24.766Z306.513° NW2025-07-09 12:42:24.766Z132.345° SE44.894°2025-07-09 12:55:24.766Z130.407° SE
19 mins2025-07-09 14:35:24.766Z285.22° WNW2025-07-09 14:43:24.766Z228.203° WSW30.594°2025-07-09 14:54:24.766Z175.607° S
6 mins2025-07-10 05:30:24.766Z190.892° SSW2025-07-10 05:31:24.766Z156.504° SSE36.804°2025-07-10 05:36:24.766Z60.33° ENE
8 mins2025-07-10 07:29:24.766Z293.976° NW2025-07-10 07:31:24.766Z333.807° NNW30.603°2025-07-10 07:37:24.766Z48.042° ENE
|